Crossville, TN

6:49 AM CDT on June 28, 2017 (GMT -0500)
Crossville Memorial-Whitson

Weather History for KCSV - April, 2013

Change the Weather History Date:

Saturday, April 27, 2013

  Actual Average Record
Temperature  
Mean Temperature 52 °F 59 °F  
Max Temperature 55 °F 70 °F 88 °F (1986)
Min Temperature 49 °F 48 °F 30 °F (1976)
Degree Days  
Heating Degree Days 13    
Month to date heating degree days 287  
Since 1 July heating degree days 4198  
Cooling Degree Days 0    
Month to date cooling degree days 21  
Year to date cooling degree days 21  
Moisture  
Dew Point 48 °F    
Average Humidity 90    
Maximum Humidity 96    
Minimum Humidity 83    
Precipitation  
Precipitation 1.70 in 0.17 in 2.46 in (1970)
Month to date precipitation 5.49 4.36  
Year to date precipitation 20.50 18.56  
Sea Level Pressure  
Sea Level Pressure 30.24 in    
Wind  
Wind Speed 5 mph (SE)    
Max Wind Speed 9 mph    
Max Gust Speed 18 mph    
Visibility 5 miles    
Events Rain    
T = Trace of Precipitation, MM = Missing Value Source: NWS Daily Summary

Daily Weather History Graph

Daily Weather History Graph

Search for Another Location

Airport or City:

Trip Planner

Search our weather history database for the weather conditions in past years. The results will help you decide how hot, cold, wet, or windy it might be!

Date:

Astronomy

Apr. 27, 2013 Rise Set
Actual Time 5:52 AM CDT 7:24 PM CDT
Civil Twilight 5:24 AM CDT 7:51 PM CDT
Nautical Twilight 4:52 AM CDT 8:24 PM CDT
Astronomical Twilight 4:18 AM CDT 8:58 PM CDT
Moon 9:49 PM CDT (4/27) 7:12 AM CDT (4/27)
Length of Visible Light 14h 26m
Length of Day
13h 32m
Waning Gibbous, 95% of the Moon is Illuminated
Apr 27
Waning Gibbous
May 2
Last Quarter
May 9
New
May 17
First Quarter
May 24
Full

Hourly Weather History & Observations

Time (CDT) Temp. Dew Point Humidity Pressure Visibility Wind Dir Wind Speed Gust Speed Precip Events Conditions
12:53 AM 48.9 °F 46.0 °F 90% 30.34 in 10.0 mi Calm Calm - 0.01 in Rain Light Rain
1:53 AM 50.0 °F 45.0 °F 83% 30.33 in 8.0 mi Calm Calm - 0.00 in Rain Light Rain
2:53 AM 48.9 °F 46.9 °F 93% 30.34 in 5.0 mi Calm Calm - 0.05 in Rain Light Rain
3:53 AM 48.9 °F 46.9 °F 93% 30.30 in 6.0 mi Calm Calm - 0.06 in Rain Light Rain
4:53 AM 48.9 °F 46.9 °F 93% 30.25 in 6.0 mi SE 3.5 mph - 0.09 in Rain Light Rain
5:53 AM 50.0 °F 46.9 °F 89% 30.25 in 10.0 mi East 4.6 mph - 0.00 in   Overcast
6:53 AM 50.0 °F 48.0 °F 93% 30.27 in 8.0 mi East 5.8 mph - 0.01 in   Overcast
7:06 AM 50.0 °F 48.2 °F 94% 30.30 in 9.0 mi ENE 5.8 mph - N/A   Overcast
7:34 AM 50.0 °F 48.2 °F 94% 30.28 in 2.0 mi East 6.9 mph - 0.05 in Rain Rain
7:53 AM 50.0 °F 48.0 °F 93% 30.27 in 3.0 mi East 6.9 mph - 0.10 in Rain Light Rain
8:08 AM 50.0 °F 48.2 °F 94% 30.29 in 4.0 mi Variable 5.8 mph - 0.01 in Rain Light Rain
8:13 AM 50.0 °F 48.2 °F 94% 30.29 in 2.5 mi Variable 3.5 mph - 0.02 in Rain Rain
8:51 AM 50.0 °F 48.2 °F 94% 30.29 in 3.0 mi ESE 3.5 mph - 0.10 in Rain Light Rain
8:52 AM 50.0 °F 48.9 °F 96% 30.28 in 2.5 mi Variable 3.5 mph - 0.10 in Rain Light Rain
9:10 AM 50.0 °F 48.2 °F 94% 30.30 in 1.8 mi SSE 4.6 mph - 0.07 in Rain Rain
9:19 AM 50.0 °F 48.2 °F 94% 30.30 in 2.0 mi SSE 5.8 mph - 0.10 in Rain Rain
9:53 AM 50.0 °F 48.9 °F 96% 30.28 in 3.0 mi SE 8.1 mph - 0.20 in Rain Light Rain
10:48 AM 51.8 °F 48.2 °F 88% 30.31 in 2.5 mi SSE 8.1 mph - 0.12 in Rain Rain
10:53 AM 51.1 °F 48.9 °F 92% 30.31 in 2.5 mi South 8.1 mph - 0.13 in Rain Rain
11:07 AM 51.8 °F 48.2 °F 88% 30.31 in 3.0 mi SSE 9.2 mph - 0.03 in Rain Rain
11:29 AM 51.8 °F 48.2 °F 88% 30.31 in 2.0 mi SSE 5.8 mph - 0.10 in Rain Rain
11:51 AM 51.8 °F 50.0 °F 94% 30.31 in 1.2 mi South 4.6 mph - 0.22 in Rain Heavy Rain
11:53 AM 51.1 °F 48.9 °F 92% 30.30 in 1.2 mi SSE 5.8 mph - 0.24 in Rain Heavy Rain
12:11 PM 51.8 °F 48.2 °F 88% 30.26 in 3.0 mi Variable 5.8 mph - 0.07 in Rain Light Rain
12:37 PM 51.8 °F 48.2 °F 88% 30.27 in 6.0 mi SE 6.9 mph - 0.09 in Rain Light Rain
12:53 PM 52.0 °F 50.0 °F 93% 30.28 in 2.0 mi SE 5.8 mph - 0.15 in Rain Rain
1:09 PM 51.8 °F 48.2 °F 88% 30.29 in 1.8 mi Variable 3.5 mph - 0.07 in Rain Rain
1:30 PM 51.8 °F 48.2 °F 88% 30.25 in 3.0 mi SE 9.2 mph 16.1 mph 0.18 in Rain Light Rain
1:40 PM 51.8 °F 48.2 °F 88% 30.25 in 7.0 mi SE 8.1 mph - 0.18 in Rain Light Rain
1:53 PM 51.1 °F 48.9 °F 92% 30.23 in 4.0 mi SE 5.8 mph 18.4 mph 0.20 in Rain Light Rain
2:16 PM 51.8 °F 48.2 °F 88% 30.23 in 4.0 mi SE 6.9 mph 18.4 mph 0.01 in Rain Light Rain
2:53 PM 51.1 °F 48.9 °F 92% 30.22 in 5.0 mi SE 6.9 mph - 0.02 in Rain Light Rain
3:41 PM 50.0 °F 48.2 °F 94% 30.19 in 2.0 mi SSE 5.8 mph - 0.08 in Rain Rain
3:53 PM 50.0 °F 48.9 °F 96% 30.19 in 2.5 mi SE 4.6 mph - 0.11 in Rain Rain
4:04 PM 50.0 °F 48.2 °F 94% 30.19 in 1.5 mi SSE 6.9 mph - 0.05 in Rain Rain
4:19 PM 50.0 °F 48.2 °F 94% 30.17 in 3.0 mi SSE 4.6 mph - 0.12 in Rain Rain
4:53 PM 51.1 °F 48.9 °F 92% 30.17 in 7.0 mi Calm Calm - 0.14 in Rain Light Rain
5:25 PM 51.8 °F 48.2 °F 88% 30.18 in 2.0 mi South 4.6 mph - 0.02 in Rain Light Rain
5:33 PM 51.8 °F 48.2 °F 88% 30.17 in 1.5 mi SSE 3.5 mph - 0.06 in Rain Heavy Rain
5:44 PM 51.8 °F 48.2 °F 88% 30.16 in 2.0 mi Variable 4.6 mph - 0.07 in Rain Light Rain
5:53 PM 51.1 °F 48.9 °F 92% 30.15 in 3.0 mi SSE 4.6 mph - 0.08 in Rain Light Rain
6:08 PM 51.8 °F 48.2 °F 88% 30.15 in 5.0 mi ESE 3.5 mph - 0.01 in   Overcast
6:53 PM 51.1 °F 48.9 °F 92% 30.11 in 7.0 mi SE 4.6 mph - 0.02 in   Overcast
7:53 PM 52.0 °F 48.9 °F 89% 30.10 in 10.0 mi ESE 3.5 mph - N/A   Overcast
8:53 PM 52.0 °F 48.0 °F 86% 30.09 in 10.0 mi SSE 4.6 mph - N/A   Overcast
9:53 PM 52.0 °F 48.0 °F 86% 30.08 in 10.0 mi SE 5.8 mph - N/A   Mostly Cloudy
10:53 PM 53.1 °F 48.0 °F 83% 30.07 in 10.0 mi SSE 8.1 mph - N/A   Mostly Cloudy
11:53 PM 54.0 °F 48.9 °F 83% 30.03 in 10.0 mi South 9.2 mph 18.4 mph N/A   Overcast